Powrót do katalogu

NOAA 16 DEB

AktywnyPO
NORAD 41425·DEBRIS·🇺🇸 United States

Wystrzelony Sep 21, 2000 z Vandenberg Space Force Base

Loading…

Następne Przeloty (najbliższe 24 godziny)

TLE

ŚwieżeSource: Space-Track

Epoka: Sep 14, 2026, 13:40 UTC

1 41425U 00055LE  26257.56999888  .00006171  00000-0  12142-2 0  9997
2 41425  98.9547 158.0112 0034545 105.3714 255.1307 14.62610387554634

Śledź NOAA 16 DEB w czasie rzeczywistym z AllMySat

Download on the App Store